Precipitable_Water
0.57 0.58 0.61 0.62 0.64 0.71 0.78 0.83 0.86 0.86 0.89 0.92 0.94 0.95 0.93 0.89 0.85 0.82 0.76 0.71 0.67 0.67 0.64 0.59 0.57 0.62 0.63 0.60 0.53 0.44 0.47 0.42 0.39 0.37 0.37 0.42 0.61 0.79 1.02 1.29 1.39 1.41 1.26 1.09 1.02 0.93 0.86 0.94 1.00 1.16 1.11 1.06 1.01 0.94 1.04 0.98 0.95 0.84 0.66 0.58 0.49 0.51 0.50 0.60 0.58 0.64 0.71 0.63 0.66 0.69 0.71 0.70 0.67 0.73 0.76 0.81 0.76 0.74 0.75 0.73 0.80 0.85 0.80 0.79 0.66 0.63 0.72 0.83
0.57 0.57 0.59 0.61 0.62 0.66 0.72 0.78 0.82 0.85 0.87 0.91 0.93 0.95 0.95 0.93 0.88 0.84 0.80 0.75 0.70 0.66 0.66 0.63 0.57 0.57 0.57 0.54 0.56 0.54 0.48 0.42 0.32 0.31 0.27 0.44 0.54 0.63 0.78 1.02 1.30 1.43 1.42 1.09 0.88 0.80 0.75 0.77 0.89 1.02 1.01 0.90 1.04 0.90 1.01 0.89 0.96 0.73 0.65 0.61 0.49 0.54 0.58 0.69 0.69 0.71 0.68 0.67 0.71 0.72 0.71 0.72 0.72 0.74 0.78 0.71 0.69 0.71 0.70 0.73 0.77 0.72 0.78 0.82 0.81 0.68 0.66 0.73
0.58 0.57 0.57 0.59 0.61 0.63 0.66 0.71 0.77 0.82 0.86 0.89 0.93 0.95 0.96 0.96 0.94 0.88 0.83 0.79 0.74 0.70 0.67 0.63 0.59 0.57 0.57 0.55 0.53 0.60 0.52 0.33 0.28 0.19 0.19 0.36 0.43 0.53 0.59 0.78 1.07 1.33 1.37 1.21 1.09 0.91 0.76 0.76 0.86 0.90 0.93 0.87 0.92 0.83 0.91 0.86 0.88 0.81 0.67 0.56 0.55 0.63 0.66 0.71 0.72 0.70 0.73 0.74 0.70 0.70 0.70 0.70 0.72 0.73 0.79 0.71 0.70 0.70 0.67 0.70 0.73 0.71 0.72 0.78 0.81 0.81 0.69 0.66
0.59 0.58 0.57 0.57 0.59 0.60 0.63 0.66 0.71 0.80 0.83 0.87 0.91 0.92 0.97 0.95 0.98 0.93 0.88 0.83 0.78 0.73 0.69 0.63 0.59 0.58 0.59 0.54 0.59 0.62 0.48 0.31 0.18 0.16 0.18 0.21 0.32 0.39 0.47 0.59 0.87 1.17 1.34 1.35 1.31 1.11 0.97 0.87 0.84 0.85 0.82 0.80 0.84 0.90 0.79 0.85 0.76 0.79 0.70 0.58 0.59 0.67 0.63 0.70 0.76 0.75 0.76 0.75 0.70 0.69 0.70 0.66 0.70 0.72 0.72 0.69 0.67 0.67 0.69 0.75 0.73 0.72 0.76 0.83 0.87 0.87 0.81 0.67
0.57 0.59 0.58 0.57 0.57 0.59 0.61 0.64 0.67 0.75 0.79 0.83 0.88 0.91 0.95 0.97 0.98 0.98 0.93 0.88 0.82 0.77 0.71 0.68 0.61 0.60 0.59 0.54 0.53 0.63 0.45 0.14 0.11 0.33 0.53 0.42 0.33 0.28 0.34 0.44 0.68 1.00 1.19 1.27 1.30 1.24 1.11 0.85 0.76 0.75 0.74 0.68 0.80 0.82 0.79 0.84 0.86 0.77 0.69 0.72 0.70 0.70 0.63 0.71 0.76 0.79 0.78 0.77 0.72 0.68 0.63 0.61 0.69 0.69 0.68 0.68 0.65 0.65 0.71 0.74 0.77 0.79 0.84 0.87 0.89 0.91 0.91 0.78
0.57 0.58 0.58 0.57 0.57 0.57 0.59 0.61 0.64 0.70 0.76 0.81 0.84 0.89 0.92 0.97 0.96 1.00 0.98 0.93 0.87 0.81 0.75 0.72 0.65 0.59 0.60 0.61 0.57 0.52 0.35 0.07 0.40 0.51 0.63 0.62 0.41 0.33 0.29 0.32 0.54 0.81 1.03 1.11 1.11 1.14 1.09 0.99 0.76 0.58 0.58 0.62 0.67 0.66 0.76 0.82 0.85 0.64 0.71 0.72 0.72 0.72 0.66 0.72 0.75 0.77 0.78 0.74 0.70 0.67 0.71 0.69 0.64 0.64 0.68 0.67 0.67 0.73 0.80 0.79 0.78 0.80 0.88 0.91 0.95 0.95 0.92 0.89
0.59 0.58 0.58 0.58 0.57 0.57 0.57 0.59 0.61 0.66 0.73 0.78 0.83 0.84 0.89 0.95 0.98 0.99 1.01 0.99 0.92 0.85 0.81 0.75 0.66 0.63 0.66 0.66 0.60 0.44 0.28 0.15 0.65 0.84 0.78 0.74 0.62 0.44 0.36 0.34 0.46 0.68 0.81 0.88 0.99 0.99 1.01 0.98 0.90 0.63 0.51 0.50 0.61 0.66 0.75 0.79 0.83 0.71 0.64 0.72 0.70 0.72 0.66 0.72 0.72 0.76 0.76 0.74 0.71 0.73 0.74 0.67 0.66 0.59 0.67 0.64 0.69 0.75 0.79 0.81 0.79 0.81 0.92 0.99 0.95 0.96 0.91 0.89
0.58 0.58 0.58 0.58 0.57 0.57 0.57 0.57 0.60 0.62 0.67 0.74 0.81 0.84 0.86 0.90 0.95 0.99 1.00 1.02 0.97 0.89 0.83 0.80 0.70 0.68 0.70 0.63 0.48 0.34 0.29 0.19 0.48 0.73 0.84 0.73 0.74 0.70 0.48 0.38 0.48 0.63 0.64 0.66 0.81 0.86 0.94 0.89 0.85 0.88 0.63 0.40 0.45 0.54 0.70 0.72 0.79 0.67 0.64 0.72 0.72 0.74 0.74 0.75 0.75 0.76 0.76 0.76 0.77 0.75 0.66 0.65 0.68 0.66 0.67 0.65 0.70 0.73 0.74 0.78 0.82 0.85 0.92 0.95 0.93 0.94 0.96 0.94
0.56 0.57 0.58 0.58 0.58 0.57 0.57 0.56 0.58 0.61 0.63 0.68 0.75 0.81 0.84 0.86 0.94 0.99 0.98 1.01 1.00 0.95 0.86 0.82 0.75 0.72 0.74 0.63 0.43 0.32 0.23 0.28 0.39 0.61 0.65 0.66 0.65 0.76 0.65 0.41 0.54 0.59 0.56 0.60 0.76 0.85 0.89 0.82 0.89 0.91 0.70 0.61 0.57 0.43 0.57 0.60 0.58 0.71 0.67 0.72 0.72 0.70 0.73 0.76 0.75 0.75 0.76 0.76 0.77 0.71 0.66 0.68 0.69 0.72 0.65 0.68 0.71 0.73 0.74 0.75 0.80 0.86 0.90 0.92 0.93 0.93 0.94 0.94
0.61 0.59 0.57 0.57 0.57 0.57 0.57 0.57 0.57 0.58 0.61 0.64 0.69 0.75 0.80 0.84 0.92 0.97 0.98 1.01 1.03 0.99 0.92 0.84 0.81 0.75 0.69 0.55 0.46 0.24 0.28 0.47 0.36 0.43 0.59 0.60 0.55 0.62 0.75 0.55 0.53 0.60 0.54 0.56 0.65 0.79 0.80 0.85 0.87 0.99 0.94 0.81 0.76 0.52 0.53 0.51 0.47 0.70 0.70 0.70 0.68 0.69 0.71 0.73 0.69 0.72 0.75 0.75 0.77 0.68 0.65 0.65 0.72 0.67 0.55 0.70 0.75 0.77 0.76 0.75 0.80 0.82 0.84 0.88 0.92 0.97 0.96 0.94
0.59 0.58 0.59 0.58 0.58 0.57 0.57 0.58 0.58 0.58 0.60 0.62 0.65 0.71 0.74 0.79 0.87 0.95 0.98 1.00 1.04 1.05 0.98 0.90 0.84 0.77 0.60 0.58 0.35 0.21 0.45 0.39 0.40 0.40 0.43 0.45 0.44 0.49 0.67 0.65 0.58 0.56 0.59 0.57 0.57 0.70 0.83 0.93 1.02 1.02 0.92 0.80 0.83 0.70 0.63 0.56 0.60 0.60 0.65 0.69 0.69 0.71 0.71 0.70 0.71 0.70 0.74 0.71 0.76 0.73 0.66 0.68 0.69 0.67 0.57 0.68 0.76 0.77 0.75 0.75 0.76 0.78 0.81 0.86 0.90 0.93 0.99 1.00
0.60 0.58 0.58 0.59 0.59 0.58 0.57 0.58 0.61 0.61 0.58 0.60 0.63 0.67 0.72 0.76 0.82 0.89 0.93 0.98 1.03 1.05 1.04 0.98 0.86 0.79 0.68 0.52 0.38 0.27 0.45 0.45 0.50 0.57 0.46 0.39 0.34 0.47 0.66 0.76 0.70 0.58 0.58 0.51 0.54 0.65 0.79 0.86 0.96 0.89 0.71 0.93 0.74 0.82 0.72 0.76 0.64 0.59 0.60 0.49 0.56 0.66 0.63 0.66 0.64 0.69 0.73 0.68 0.77 0.77 0.67 0.59 0.60 0.56 0.63 0.69 0.77 0.77 0.76 0.75 0.75 0.75 0.79 0.83 0.88 0.92 0.95 0.96
0.61 0.59 0.58 0.59 0.62 0.61 0.59 0.58 0.59 0.62 0.59 0.59 0.61 0.64 0.70 0.73 0.80 0.86 0.89 0.95 1.01 1.06 1.05 1.00 0.94 0.82 0.64 0.41 0.40 0.48 0.48 0.47 0.56 0.56 0.50 0.45 0.47 0.51 0.54 0.73 0.77 0.72 0.65 0.57 0.58 0.66 0.75 0.84 0.88 0.76 0.91 0.81 0.79 0.67 0.85 0.84 0.72 0.67 0.61 0.51 0.47 0.50 0.50 0.60 0.69 0.71 0.70 0.71 0.78 0.73 0.46 0.49 0.56 0.62 0.66 0.70 0.72 0.75 0.74 0.72 0.74 0.74 0.74 0.79 0.83 0.87 0.92 0.96
0.63 0.62 0.61 0.60 0.60 0.61 0.61 0.60 0.60 0.60 0.61 0.59 0.59 0.62 0.64 0.68 0.77 0.85 0.88 0.95 1.04 1.06 1.08 1.07 0.99 0.85 0.63 0.42 0.47 0.60 0.54 0.47 0.56 0.55 0.47 0.46 0.38 0.46 0.55 0.58 0.74 0.80 0.82 0.68 0.66 0.75 0.73 0.81 0.81 0.80 0.94 0.80 0.70 0.93 0.78 0.80 0.81 0.60 0.63 0.61 0.44 0.37 0.33 0.50 0.60 0.65 0.61 0.72 0.79 0.76 0.47 0.49 0.57 0.64 0.68 0.71 0.72 0.71 0.70 0.72 0.73 0.74 0.73 0.72 0.77 0.82 0.86 0.92
0.63 0.63 0.62 0.62 0.61 0.60 0.60 0.61 0.60 0.61 0.62 0.61 0.62 0.63 0.61 0.66 0.71 0.84 0.93 0.91 1.01 1.04 1.07 1.07 1.01 0.80 0.60 0.50 0.63 0.66 0.62 0.62 0.46 0.48 0.53 0.43 0.36 0.38 0.52 0.66 0.70 0.79 0.84 0.80 0.75 0.70 0.75 0.79 0.74 0.69 0.66 0.87 0.86 0.74 0.65 0.65 0.69 0.72 0.57 0.47 0.51 0.40 0.33 0.45 0.52 0.57 0.53 0.66 0.79 0.73 0.50 0.51 0.58 0.64 0.68 0.70 0.71 0.70 0.66 0.69 0.71 0.72 0.73 0.73 0.73 0.75 0.81 0.84
0.60 0.63 0.63 0.61 0.63 0.62 0.60 0.59 0.59 0.61 0.63 0.64 0.62 0.65 0.63 0.66 0.70 0.77 0.83 0.91 0.98 1.00 1.07 0.93 0.89 0.81 0.60 0.44 0.54 0.68 0.58 0.43 0.35 0.44 0.56 0.49 0.40 0.34 0.54 0.64 0.71 0.78 0.84 0.81 0.85 0.81 0.75 0.74 0.59 0.60 0.64 0.76 0.69 0.64 0.60 0.57 0.59 0.64 0.53 0.43 0.42 0.45 0.39 0.41 0.45 0.49 0.56 0.63 0.71 0.69 0.51 0.55 0.56 0.66 0.68 0.70 0.70 0.68 0.66 0.65 0.67 0.69 0.70 0.71 0.71 0.72 0.76 0.81
0.58 0.60 0.62 0.61 0.60 0.61 0.62 0.61 0.61 0.61 0.64 0.65 0.64 0.63 0.66 0.64 0.68 0.79 0.81 0.87 0.97 1.02 0.98 0.81 0.87 0.84 0.48 0.66 0.76 0.53 0.45 0.41 0.46 0.40 0.49 0.53 0.46 0.42 0.49 0.59 0.61 0.64 0.78 0.82 0.86 0.74 0.72 0.59 0.66 0.61 0.66 0.58 0.63 0.59 0.49 0.47 0.46 0.49 0.55 0.41 0.42 0.39 0.42 0.38 0.44 0.50 0.49 0.50 0.51 0.65 0.59 0.58 0.61 0.64 0.66 0.67 0.66 0.65 0.63 0.62 0.64 0.66 0.67 0.68 0.70 0.70 0.71 0.74
0.58 0.59 0.61 0.61 0.59 0.59 0.61 0.61 0.61 0.62 0.64 0.65 0.64 0.60 0.64 0.66 0.69 0.74 0.74 0.86 0.98 0.99 0.93 0.96 0.88 0.70 0.57 0.67 0.46 0.43 0.53 0.48 0.44 0.37 0.43 0.57 0.50 0.45 0.47 0.50 0.60 0.62 0.65 0.64 0.80 0.59 0.61 0.49 0.56 0.41 0.47 0.49 0.55 0.55 0.41 0.31 0.34 0.35 0.41 0.41 0.41 0.46 0.46 0.40 0.38 0.44 0.49 0.49 0.41 0.47 0.52 0.54 0.61 0.63 0.62 0.63 0.66 0.63 0.61 0.62 0.63 0.64 0.65 0.67 0.68 0.69 0.69 0.70
0.56 0.59 0.61 0.61 0.60 0.58 0.59 0.61 0.61 0.61 0.63 0.65 0.66 0.64 0.64 0.72 0.75 0.77 0.65 0.76 0.74 0.65 0.53 0.60 0.64 0.42 0.32 0.41 0.53 0.57 0.55 0.56 0.50 0.41 0.38 0.47 0.53 0.54 0.53 0.61 0.64 0.56 0.49 0.47 0.53 0.63 0.61 0.49 0.50 0.41 0.33 0.37 0.41 0.44 0.38 0.32 0.38 0.40 0.42 0.39 0.40 0.40 0.43 0.43 0.48 0.53 0.51 0.45 0.41 0.39 0.35 0.40 0.50 0.57 0.60 0.61 0.63 0.60 0.58 0.61 0.62 0.62 0.64 0.64 0.66 0.68 0.68 0.68
0.55 0.57 0.59 0.60 0.60 0.59 0.59 0.60 0.61 0.60 0.62 0.62 0.63 0.59 0.58 0.49 0.47 0.48 0.60 0.67 0.61 0.60 0.54 0.57 0.60 0.55 0.51 0.49 0.50 0.57 0.70 0.64 0.47 0.42 0.39 0.51 0.52 0.49 0.46 0.47 0.52 0.55 0.50 0.37 0.44 0.54 0.68 0.38 0.29 0.28 0.29 0.35 0.39 0.44 0.45 0.46 0.54 0.54 0.51 0.48 0.46 0.45 0.45 0.51 0.53 0.56 0.61 0.53 0.49 0.46 0.43 0.40 0.42 0.48 0.56 0.60 0.62 0.61 0.59 0.59 0.60 0.60 0.61 0.61 0.63 0.65 0.68 0.68
0.57 0.56 0.56 0.55 0.56 0.57 0.59 0.60 0.62 0.61 0.63 0.62 0.62 0.50 0.33 0.36 0.31 0.28 0.43 0.50 0.61 0.64 0.63 0.63 0.62 0.56 0.50 0.56 0.61 0.56 0.50 0.52 0.51 0.44 0.38 0.52 0.51 0.44 0.39 0.38 0.40 0.31 0.37 0.40 0.40 0.61 0.60 0.42 0.37 0.31 0.31 0.33 0.40 0.49 0.51 0.54 0.57 0.50 0.48 0.48 0.44 0.44 0.39 0.48 0.48 0.56 0.63 0.53 0.47 0.53 0.50 0.47 0.47 0.51 0.55 0.59 0.59 0.57 0.59 0.60 0.60 0.60 0.60 0.61 0.61 0.62 0.64 0.67
0.56 0.55 0.55 0.54 0.53 0.54 0.55 0.58 0.60 0.62 0.64 0.63 0.59 0.45 0.44 0.46 0.56 0.55 0.47 0.35 0.56 0.66 0.72 0.67 0.67 0.61 0.65 0.60 0.66 0.61 0.57 0.47 0.48 0.46 0.46 0.44 0.43 0.34 0.36 0.32 0.29 0.21 0.29 0.36 0.44 0.41 0.40 0.36 0.41 0.40 0.36 0.36 0.39 0.46 0.54 0.51 0.50 0.52 0.50 0.48 0.45 0.44 0.47 0.51 0.53 0.56 0.56 0.53 0.43 0.48 0.46 0.45 0.49 0.53 0.55 0.57 0.56 0.55 0.60 0.61 0.60 0.62 0.61 0.59 0.60 0.61 0.61 0.63
0.54 0.53 0.53 0.53 0.52 0.53 0.53 0.57 0.60 0.63 0.62 0.57 0.50 0.50 0.42 0.55 0.68 0.69 0.64 0.51 0.38 0.59 0.66 0.66 0.59 0.57 0.53 0.64 0.65 0.67 0.47 0.41 0.37 0.47 0.45 0.45 0.42 0.35 0.39 0.31 0.30 0.26 0.30 0.33 0.25 0.28 0.27 0.36 0.44 0.49 0.48 0.44 0.42 0.44 0.44 0.44 0.48 0.45 0.46 0.45 0.38 0.40 0.38 0.32 0.42 0.47 0.52 0.50 0.41 0.44 0.44 0.45 0.51 0.56 0.55 0.57 0.55 0.56 0.61 0.62 0.61 0.62 0.61 0.60 0.59 0.60 0.60 0.61
0.54 0.52 0.51 0.51 0.53 0.52 0.54 0.56 0.62 0.65 0.59 0.52 0.53 0.47 0.51 0.62 0.68 0.64 0.55 0.43 0.35 0.49 0.58 0.62 0.61 0.55 0.53 0.52 0.64 0.58 0.50 0.46 0.44 0.42 0.55 0.44 0.34 0.37 0.38 0.32 0.25 0.26 0.25 0.31 0.28 0.23 0.21 0.28 0.34 0.47 0.53 0.48 0.45 0.47 0.45 0.44 0.39 0.43 0.43 0.39 0.35 0.34 0.36 0.32 0.32 0.43 0.49 0.50 0.48 0.44 0.42 0.42 0.47 0.47 0.51 0.58 0.63 0.60 0.60 0.62 0.63 0.64 0.63 0.64 0.66 0.64 0.64 0.63
0.56 0.54 0.53 0.52 0.52 0.54 0.54 0.60 0.55 0.54 0.57 0.54 0.49 0.58 0.61 0.65 0.66 0.63 0.51 0.44 0.42 0.41 0.68 0.62 0.68 0.64 0.61 0.75 0.74 0.56 0.57 0.54 0.47 0.47 0.51 0.46 0.38 0.37 0.33 0.40 0.29 0.21 0.24 0.30 0.29 0.28 0.26 0.32 0.43 0.36 0.43 0.49 0.47 0.43 0.45 0.44 0.38 0.42 0.47 0.43 0.39 0.38 0.38 0.40 0.42 0.40 0.36 0.34 0.42 0.38 0.29 0.27 0.35 0.42 0.46 0.53 0.58 0.57 0.58 0.58 0.58 0.60 0.62 0.62 0.61 0.62 0.65 0.66
0.55 0.55 0.53 0.52 0.53 0.55 0.59 0.48 0.47 0.53 0.54 0.46 0.47 0.60 0.65 0.66 0.67 0.65 0.48 0.33 0.24 0.37 0.57 0.41 0.66 0.50 0.73 0.57 0.64 0.61 0.59 0.44 0.53 0.52 0.51 0.49 0.50 0.34 0.37 0.34 0.37 0.20 0.22 0.25 0.26 0.28 0.23 0.27 0.35 0.31 0.33 0.38 0.45 0.43 0.47 0.47 0.37 0.35 0.37 0.49 0.46 0.45 0.44 0.43 0.40 0.38 0.29 0.24 0.31 0.44 0.27 0.19 0.30 0.35 0.39 0.44 0.47 0.48 0.51 0.51 0.51 0.54 0.57 0.59 0.60 0.61 0.63 0.63
0.54 0.54 0.53 0.53 0.55 0.58 0.49 0.38 0.51 0.55 0.43 0.43 0.58 0.65 0.63 0.66 0.71 0.59 0.37 0.26 0.22 0.34 0.35 0.54 0.52 0.51 0.61 0.54 0.55 0.62 0.33 0.38 0.59 0.60 0.52 0.54 0.44 0.54 0.28 0.27 0.34 0.32 0.31 0.35 0.32 0.27 0.32 0.29 0.31 0.33 0.32 0.33 0.35 0.38 0.49 0.53 0.45 0.35 0.41 0.42 0.45 0.44 0.42 0.39 0.39 0.38 0.33 0.41 0.41 0.45 0.41 0.27 0.21 0.29 0.38 0.43 0.43 0.43 0.43 0.45 0.47 0.50 0.52 0.54 0.55 0.58 0.60 0.60
0.54 0.53 0.52 0.54 0.56 0.58 0.46 0.51 0.49 0.45 0.39 0.49 0.61 0.62 0.63 0.66 0.68 0.57 0.34 0.15 0.16 0.39 0.31 0.47 0.52 0.70 0.56 0.57 0.59 0.49 0.46 0.55 0.40 0.52 0.56 0.54 0.52 0.47 0.37 0.29 0.24 0.23 0.31 0.34 0.17 0.26 0.26 0.26 0.31 0.30 0.33 0.34 0.31 0.36 0.48 0.53 0.45 0.42 0.50 0.56 0.50 0.47 0.46 0.46 0.44 0.40 0.40 0.37 0.30 0.36 0.42 0.31 0.23 0.25 0.34 0.40 0.35 0.36 0.37 0.37 0.39 0.44 0.49 0.51 0.54 0.56 0.57 0.58
0.55 0.54 0.53 0.54 0.57 0.59 0.60 0.52 0.46 0.37 0.53 0.61 0.60 0.62 0.65 0.66 0.59 0.37 0.24 0.14 0.40 0.31 0.62 0.38 0.72 0.61 0.56 0.58 0.51 0.52 0.49 0.58 0.37 0.47 0.60 0.60 0.55 0.46 0.30 0.32 0.31 0.28 0.35 0.32 0.20 0.26 0.37 0.37 0.35 0.35 0.37 0.33 0.39 0.45 0.50 0.54 0.49 0.53 0.56 0.61 0.57 0.55 0.53 0.51 0.47 0.44 0.42 0.38 0.27 0.32 0.39 0.25 0.19 0.21 0.27 0.31 0.28 0.28 0.31 0.34 0.35 0.37 0.42 0.46 0.48 0.50 0.52 0.54
0.55 0.54 0.53 0.55 0.58 0.58 0.58 0.59 0.50 0.54 0.58 0.63 0.66 0.65 0.64 0.58 0.45 0.26 0.18 0.12 0.40 0.23 0.39 0.43 0.44 0.42 0.52 0.41 0.43 0.48 0.46 0.51 0.53 0.56 0.56 0.47 0.47 0.52 0.46 0.43 0.36 0.33 0.31 0.36 0.30 0.28 0.40 0.44 0.47 0.41 0.35 0.36 0.36 0.40 0.45 0.48 0.53 0.62 0.62 0.51 0.50 0.53 0.52 0.54 0.51 0.47 0.41 0.32 0.32 0.36 0.39 0.35 0.22 0.21 0.26 0.25 0.22 0.22 0.26 0.31 0.34 0.35 0.38 0.41 0.43 0.45 0.48 0.49
0.56 0.55 0.54 0.57 0.50 0.51 0.54 0.43 0.48 0.60 0.60 0.65 0.67 0.61 0.54 0.46 0.28 0.18 0.13 0.19 0.36 0.34 0.45 0.41 0.36 0.50 0.41 0.38 0.33 0.43 0.45 0.48 0.49 0.51 0.44 0.51 0.45 0.47 0.45 0.34 0.42 0.33 0.31 0.29 0.26 0.27 0.33 0.41 0.37 0.42 0.47 0.44 0.43 0.38 0.46 0.47 0.48 0.47 0.49 0.48 0.46 0.43 0.45 0.42 0.44 0.46 0.31 0.27 0.36 0.39 0.39 0.41 0.25 0.21 0.27 0.32 0.31 0.30 0.28 0.25 0.27 0.30 0.30 0.32 0.37 0.40 0.42 0.43
0.57 0.57 0.57 0.55 0.54 0.62 0.44 0.34 0.48 0.62 0.63 0.64 0.58 0.50 0.42 0.23 0.29 0.17 0.14 0.41 0.19 0.29 0.30 0.34 0.42 0.39 0.39 0.40 0.36 0.36 0.35 0.41 0.49 0.47 0.41 0.39 0.35 0.33 0.33 0.24 0.27 0.19 0.19 0.20 0.18 0.24 0.24 0.29 0.39 0.42 0.49 0.44 0.39 0.35 0.40 0.43 0.44 0.43 0.39 0.40 0.33 0.28 0.32 0.24 0.31 0.26 0.27 0.24 0.29 0.33 0.36 0.35 0.33 0.27 0.26 0.30 0.30 0.29 0.29 0.27 0.26 0.26 0.26 0.29 0.32 0.34 0.34 0.35
0.58 0.58 0.58 0.58 0.60 0.53 0.51 0.56 0.62 0.62 0.66 0.64 0.51 0.46 0.30 0.21 0.13 0.19 0.23 0.22 0.21 0.35 0.29 0.40 0.34 0.35 0.34 0.35 0.34 0.36 0.40 0.34 0.48 0.47 0.47 0.44 0.37 0.34 0.36 0.32 0.29 0.21 0.13 0.19 0.18 0.20 0.22 0.33 0.36 0.41 0.46 0.48 0.42 0.29 0.30 0.31 0.36 0.34 0.32 0.30 0.25 0.20 0.21 0.18 0.21 0.24 0.25 0.30 0.33 0.30 0.34 0.28 0.31 0.33 0.33 0.31 0.27 0.28 0.29 0.27 0.27 0.27 0.27 0.27 0.28 0.31 0.34 0.35
0.59 0.60 0.56 0.58 0.58 0.55 0.58 0.58 0.58 0.61 0.60 0.60 0.48 0.34 0.28 0.17 0.16 0.24 0.22 0.24 0.26 0.36 0.32 0.33 0.39 0.36 0.33 0.27 0.30 0.36 0.34 0.43 0.43 0.43 0.46 0.40 0.40 0.31 0.35 0.39 0.35 0.26 0.20 0.17 0.15 0.17 0.13 0.15 0.25 0.32 0.26 0.42 0.39 0.30 0.26 0.23 0.26 0.30 0.33 0.30 0.23 0.21 0.16 0.13 0.18 0.15 0.16 0.17 0.23 0.30 0.28 0.26 0.24 0.21 0.24 0.26 0.29 0.29 0.25 0.26 0.28 0.29 0.27 0.27 0.29 0.31 0.33 0.32
0.60 0.60 0.59 0.59 0.58 0.61 0.60 0.60 0.59 0.61 0.56 0.48 0.38 0.28 0.17 0.16 0.21 0.19 0.20 0.26 0.32 0.35 0.34 0.38 0.32 0.36 0.33 0.32 0.33 0.37 0.35 0.32 0.44 0.42 0.41 0.38 0.35 0.35 0.32 0.33 0.36 0.29 0.23 0.15 0.18 0.17 0.13 0.10 0.14 0.24 0.26 0.31 0.34 0.42 0.41 0.37 0.33 0.35 0.39 0.39 0.31 0.24 0.28 0.18 0.19 0.19 0.18 0.19 0.20 0.25 0.25 0.30 0.26 0.30 0.27 0.32 0.28 0.29 0.26 0.27 0.28 0.26 0.26 0.27 0.27 0.28 0.29 0.31
0.58 0.56 0.59 0.52 0.52 0.58 0.60 0.63 0.60 0.60 0.49 0.41 0.29 0.22 0.19 0.20 0.18 0.25 0.23 0.27 0.33 0.30 0.32 0.35 0.34 0.29 0.31 0.32 0.37 0.34 0.42 0.35 0.40 0.39 0.38 0.38 0.38 0.34 0.37 0.36 0.35 0.33 0.23 0.15 0.17 0.12 0.15 0.11 0.16 0.19 0.29 0.29 0.28 0.37 0.44 0.46 0.22 0.31 0.36 0.28 0.29 0.35 0.28 0.22 0.24 0.27 0.27 0.23 0.18 0.23 0.23 0.26 0.36 0.32 0.26 0.28 0.25 0.27 0.27 0.25 0.27 0.26 0.26 0.27 0.27 0.26 0.27 0.31
0.51 0.56 0.46 0.49 0.51 0.60 0.62 0.64 0.66 0.57 0.48 0.36 0.25 0.20 0.24 0.24 0.28 0.26 0.32 0.27 0.27 0.34 0.34 0.23 0.29 0.27 0.27 0.29 0.31 0.34 0.34 0.38 0.38 0.38 0.31 0.40 0.35 0.40 0.38 0.38 0.42 0.36 0.31 0.21 0.18 0.21 0.10 0.09 0.16 0.18 0.18 0.26 0.32 0.35 0.46 0.47 0.47 0.38 0.27 0.31 0.40 0.47 0.43 0.32 0.21 0.22 0.21 0.17 0.19 0.23 0.17 0.20 0.22 0.17 0.24 0.22 0.21 0.25 0.25 0.22 0.24 0.25 0.27 0.27 0.26 0.27 0.29 0.30
0.48 0.49 0.47 0.46 0.52 0.61 0.63 0.63 0.58 0.48 0.41 0.32 0.23 0.22 0.31 0.24 0.31 0.32 0.36 0.36 0.33 0.33 0.32 0.29 0.28 0.34 0.27 0.28 0.29 0.31 0.35 0.29 0.32 0.36 0.32 0.36 0.29 0.41 0.35 0.33 0.41 0.37 0.33 0.32 0.20 0.20 0.20 0.11 0.15 0.19 0.15 0.21 0.35 0.37 0.35 0.45 0.52 0.40 0.36 0.48 0.33 0.28 0.26 0.35 0.32 0.20 0.19 0.18 0.20 0.24 0.22 0.21 0.23 0.22 0.22 0.18 0.20 0.23 0.26 0.25 0.25 0.26 0.27 0.28 0.28 0.30 0.33 0.36
0.49 0.44 0.35 0.46 0.59 0.63 0.61 0.62 0.56 0.45 0.35 0.26 0.23 0.20 0.28 0.30 0.33 0.31 0.37 0.37 0.35 0.33 0.29 0.32 0.28 0.33 0.32 0.27 0.30 0.33 0.32 0.26 0.34 0.31 0.28 0.35 0.26 0.35 0.34 0.35 0.32 0.37 0.38 0.37 0.26 0.28 0.24 0.12 0.12 0.21 0.18 0.25 0.28 0.29 0.17 0.24 0.40 0.46 0.48 0.39 0.50 0.41 0.31 0.28 0.31 0.31 0.30 0.22 0.23 0.22 0.26 0.21 0.29 0.27 0.26 0.20 0.21 0.23 0.27 0.29 0.28 0.28 0.30 0.31 0.33 0.35 0.36 0.35
0.42 0.35 0.31 0.50 0.58 0.62 0.63 0.57 0.47 0.41 0.31 0.22 0.22 0.23 0.29 0.26 0.32 0.35 0.35 0.38 0.35 0.33 0.30 0.30 0.35 0.28 0.33 0.30 0.30 0.28 0.33 0.29 0.29 0.29 0.28 0.31 0.26 0.35 0.30 0.37 0.31 0.34 0.38 0.40 0.30 0.35 0.24 0.22 0.11 0.20 0.27 0.27 0.19 0.26 0.18 0.16 0.19 0.26 0.30 0.30 0.37 0.40 0.45 0.41 0.38 0.33 0.27 0.23 0.22 0.20 0.20 0.24 0.31 0.34 0.29 0.22 0.21 0.24 0.29 0.31 0.33 0.32 0.33 0.35 0.34 0.33 0.32 0.33
0.45 0.33 0.33 0.52 0.55 0.60 0.59 0.46 0.35 0.30 0.27 0.29 0.30 0.27 0.30 0.28 0.31 0.33 0.38 0.40 0.38 0.42 0.34 0.33 0.32 0.29 0.30 0.30 0.32 0.35 0.30 0.32 0.33 0.30 0.28 0.29 0.28 0.22 0.34 0.30 0.31 0.29 0.38 0.41 0.35 0.35 0.26 0.24 0.14 0.21 0.22 0.20 0.18 0.23 0.20 0.20 0.20 0.21 0.20 0.19 0.25 0.27 0.29 0.28 0.26 0.41 0.36 0.29 0.24 0.23 0.20 0.28 0.36 0.43 0.39 0.32 0.30 0.32 0.34 0.34 0.34 0.33 0.31 0.31 0.32 0.34 0.36 0.36
0.35 0.22 0.29 0.52 0.57 0.57 0.46 0.30 0.30 0.34 0.30 0.25 0.25 0.29 0.28 0.36 0.34 0.31 0.36 0.42 0.38 0.36 0.41 0.37 0.37 0.34 0.31 0.30 0.29 0.31 0.31 0.29 0.30 0.30 0.30 0.26 0.29 0.25 0.29 0.37 0.35 0.37 0.32 0.30 0.29 0.34 0.31 0.30 0.20 0.18 0.22 0.19 0.22 0.33 0.35 0.34 0.31 0.28 0.26 0.21 0.26 0.26 0.28 0.27 0.22 0.28 0.36 0.35 0.37 0.32 0.28 0.30 0.46 0.47 0.43 0.38 0.35 0.35 0.36 0.35 0.34 0.35 0.34 0.35 0.38 0.41 0.44 0.43
0.31 0.25 0.47 0.53 0.57 0.49 0.36 0.27 0.29 0.28 0.27 0.29 0.33 0.33 0.35 0.33 0.33 0.39 0.33 0.37 0.34 0.39 0.37 0.35 0.35 0.32 0.35 0.32 0.34 0.34 0.32 0.26 0.28 0.26 0.27 0.26 0.28 0.30 0.36 0.39 0.39 0.36 0.36 0.32 0.36 0.40 0.37 0.25 0.22 0.20 0.26 0.29 0.34 0.38 0.36 0.36 0.34 0.30 0.33 0.30 0.27 0.23 0.24 0.22 0.22 0.24 0.25 0.28 0.30 0.30 0.28 0.33 0.43 0.45 0.42 0.39 0.37 0.37 0.39 0.39 0.37 0.39 0.40 0.39 0.39 0.41 0.41 0.40
0.32 0.32 0.38 0.53 0.55 0.46 0.29 0.19 0.20 0.23 0.27 0.32 0.31 0.29 0.36 0.34 0.33 0.36 0.35 0.36 0.35 0.36 0.35 0.35 0.37 0.38 0.32 0.36 0.36 0.32 0.36 0.26 0.31 0.29 0.28 0.31 0.28 0.36 0.38 0.38 0.39 0.36 0.32 0.30 0.25 0.33 0.25 0.26 0.20 0.16 0.18 0.20 0.24 0.30 0.29 0.35 0.34 0.29 0.26 0.27 0.26 0.25 0.24 0.23 0.23 0.25 0.21 0.23 0.25 0.26 0.22 0.29 0.40 0.43 0.40 0.38 0.37 0.36 0.37 0.39 0.40 0.38 0.39 0.39 0.38 0.36 0.37 0.39
0.37 0.39 0.38 0.45 0.52 0.41 0.24 0.24 0.22 0.21 0.24 0.27 0.26 0.26 0.28 0.31 0.35 0.37 0.35 0.35 0.40 0.39 0.35 0.35 0.36 0.36 0.35 0.37 0.35 0.37 0.36 0.30 0.25 0.32 0.31 0.30 0.29 0.35 0.38 0.37 0.38 0.35 0.35 0.36 0.35 0.38 0.28 0.25 0.21 0.16 0.12 0.11 0.10 0.11 0.14 0.17 0.22 0.25 0.27 0.26 0.28 0.26 0.23 0.23 0.18 0.20 0.17 0.19 0.21 0.20 0.22 0.29 0.36 0.38 0.36 0.36 0.34 0.33 0.36 0.38 0.40 0.41 0.39 0.38 0.38 0.37 0.36 0.35
0.33 0.22 0.31 0.41 0.42 0.39 0.34 0.35 0.30 0.26 0.25 0.27 0.27 0.27 0.27 0.26 0.32 0.39 0.41 0.38 0.43 0.43 0.39 0.37 0.40 0.40 0.36 0.35 0.33 0.33 0.33 0.35 0.30 0.27 0.29 0.27 0.29 0.31 0.34 0.37 0.35 0.33 0.34 0.37 0.39 0.36 0.29 0.28 0.25 0.19 0.14 0.11 0.10 0.10 0.13 0.18 0.21 0.21 0.23 0.25 0.24 0.28 0.30 0.30 0.27 0.22 0.17 0.20 0.18 0.20 0.22 0.24 0.27 0.28 0.27 0.30 0.32 0.30 0.31 0.34 0.34 0.35 0.36 0.37 0.40 0.39 0.38 0.38
0.38 0.26 0.26 0.28 0.36 0.36 0.29 0.32 0.29 0.30 0.25 0.28 0.25 0.31 0.26 0.26 0.28 0.33 0.39 0.35 0.42 0.41 0.41 0.39 0.36 0.33 0.33 0.33 0.31 0.31 0.33 0.31 0.32 0.30 0.28 0.27 0.29 0.29 0.33 0.35 0.35 0.35 0.36 0.35 0.37 0.32 0.28 0.23 0.24 0.22 0.18 0.16 0.14 0.14 0.21 0.20 0.16 0.18 0.19 0.22 0.27 0.30 0.33 0.31 0.26 0.20 0.25 0.21 0.16 0.20 0.24 0.24 0.22 0.22 0.21 0.23 0.27 0.28 0.29 0.31 0.31 0.33 0.35 0.37 0.39 0.40 0.39 0.37
0.28 0.32 0.32 0.36 0.29 0.22 0.23 0.25 0.30 0.28 0.30 0.31 0.27 0.34 0.30 0.27 0.29 0.28 0.36 0.42 0.43 0.44 0.37 0.38 0.38 0.35 0.33 0.29 0.30 0.27 0.30 0.30 0.30 0.25 0.29 0.29 0.28 0.30 0.29 0.34 0.32 0.34 0.36 0.35 0.38 0.29 0.24 0.18 0.20 0.23 0.20 0.20 0.19 0.19 0.20 0.21 0.22 0.23 0.22 0.22 0.22 0.27 0.32 0.32 0.32 0.33 0.32 0.27 0.22 0.24 0.26 0.26 0.25 0.25 0.23 0.21 0.22 0.24 0.25 0.27 0.31 0.37 0.39 0.39 0.41 0.41 0.41 0.39
0.40 0.39 0.34 0.41 0.30 0.33 0.28 0.27 0.28 0.27 0.28 0.29 0.30 0.32 0.30 0.30 0.29 0.31 0.30 0.31 0.38 0.39 0.41 0.30 0.32 0.34 0.34 0.36 0.33 0.29 0.30 0.26 0.25 0.28 0.27 0.26 0.27 0.27 0.25 0.29 0.34 0.37 0.36 0.36 0.37 0.36 0.26 0.20 0.20 0.23 0.20 0.21 0.22 0.23 0.23 0.22 0.22 0.22 0.23 0.26 0.26 0.25 0.25 0.26 0.28 0.34 0.36 0.36 0.38 0.36 0.35 0.33 0.37 0.37 0.31 0.25 0.27 0.30 0.31 0.35 0.38 0.38 0.39 0.42 0.44 0.44 0.44 0.45
0.37 0.32 0.29 0.37 0.37 0.36 0.35 0.32 0.30 0.31 0.28 0.31 0.27 0.29 0.30 0.30 0.30 0.35 0.39 0.34 0.30 0.35 0.42 0.33 0.31 0.34 0.36 0.36 0.34 0.30 0.30 0.28 0.25 0.24 0.29 0.28 0.29 0.28 0.25 0.26 0.26 0.34 0.36 0.34 0.36 0.38 0.28 0.21 0.24 0.23 0.18 0.17 0.19 0.22 0.23 0.23 0.22 0.21 0.24 0.25 0.25 0.26 0.26 0.27 0.27 0.27 0.29 0.32 0.36 0.36 0.34 0.32 0.38 0.43 0.39 0.35 0.35 0.38 0.36 0.34 0.35 0.37 0.40 0.43 0.46 0.45 0.45 0.45
0.48 0.47 0.44 0.34 0.31 0.36 0.37 0.35 0.32 0.29 0.28 0.32 0.29 0.30 0.31 0.31 0.30 0.34 0.34 0.40 0.35 0.32 0.35 0.32 0.34 0.36 0.38 0.36 0.35 0.32 0.35 0.34 0.33 0.31 0.30 0.29 0.24 0.29 0.25 0.28 0.32 0.28 0.32 0.33 0.35 0.36 0.32 0.27 0.30 0.25 0.18 0.16 0.19 0.19 0.20 0.23 0.24 0.23 0.21 0.22 0.21 0.20 0.18 0.19 0.19 0.21 0.21 0.20 0.23 0.26 0.27 0.28 0.32 0.38 0.40 0.38 0.37 0.35 0.32 0.32 0.33 0.35 0.37 0.38 0.39 0.41 0.43 0.43
0.51 0.53 0.50 0.42 0.31 0.38 0.35 0.37 0.35 0.32 0.26 0.28 0.28 0.29 0.29 0.29 0.32 0.35 0.32 0.40 0.41 0.44 0.41 0.40 0.40 0.37 0.36 0.35 0.32 0.33 0.37 0.38 0.38 0.37 0.37 0.37 0.37 0.35 0.33 0.33 0.32 0.28 0.29 0.29 0.35 0.30 0.30 0.28 0.24 0.23 0.18 0.14 0.19 0.23 0.23 0.24 0.22 0.18 0.17 0.16 0.16 0.16 0.17 0.18 0.20 0.21 0.21 0.22 0.19 0.18 0.17 0.21 0.23 0.27 0.27 0.27 0.29 0.30 0.30 0.30 0.30 0.32 0.34 0.36 0.36 0.37 0.42 0.45
Wind_Speed
55 55 55 55 55 55 55 54 54 53 52 52 52 52 52 51 51 50 49 48 47 46 46 45 44 43 42 41 41 42 42 41 41 42 43 42 40 40 39 38 37 36 35 34 34 32 32 31 30 29 27 27 26 26 25 24 23 22 20 20 20 19 18 17 16 15 14 13 12 13 14 12 12 12 10 9 8 8 7 7 7 7 5 5 5 4 6 7
55 55 56 56 56 56 56 55 55 54 53 53 53 53 53 52 51 51 50 49 48 47 47 46 46 44 43 42 41 42 42 42 43 45 45 42 41 42 41 40 38 38 36 35 35 34 33 33 32 30 29 28 28 27 26 25 25 24 22 22 22 20 19 18 17 16 15 15 14 15 15 14 14 13 12 11 11 9 8 8 8 7 7 6 5 5 7 8
54 55 56 56 56 56 56 56 56 55 55 54 53 53 53 53 52 51 51 50 49 49 48 47 46 45 44 43 42 41 41 41 43 46 45 44 44 44 42 41 40 38 37 36 36 35 35 34 33 32 31 30 29 28 27 27 26 25 24 24 23 21 20 20 19 18 17 17 17 17 16 16 16 15 14 13 12 11 10 10 10 10 10 9 8 8 8 9
53 54 55 56 57 57 57 56 56 56 55 55 54 54 54 54 53 52 52 51 50 49 49 47 47 46 45 44 43 42 40 40 43 43 42 45 47 45 44 43 41 40 38 38 37 36 35 35 34 33 32 31 31 30 29 29 27 27 26 26 24 21 22 22 21 21 19 19 18 17 15 15 17 16 15 14 12 13 13 13 13 13 13 12 11 10 10 9
53 53 54 55 56 57 57 57 57 56 56 55 55 54 54 54 54 53 52 52 51 50 49 48 47 47 46 45 44 42 40 39 41 40 39 43 45 45 46 44 43 41 39 38 38 37 36 35 35 34 33 32 32 31 31 31 29 28 28 28 27 24 23 23 23 22 21 20 19 17 15 15 16 16 17 16 14 15 15 15 15 14 14 14 13 12 12 11
52 53 53 54 55 56 56 57 57 57 56 56 55 55 55 55 54 54 53 52 52 50 50 49 48 47 46 45 44 44 43 40 38 37 35 38 42 44 45 45 44 43 41 39 38 38 37 36 36 35 34 33 33 32 32 33 31 30 29 29 29 26 25 24 24 23 21 21 21 19 17 16 16 17 18 18 17 17 16 15 14 14 14 15 14 14 14 13
51 52 53 53 54 55 56 56 57 57 57 56 55 55 55 55 54 54 54 53 52 52 50 49 48 48 47 46 46 46 47 45 40 37 34 34 38 41 43 45 45 44 43 42 40 39 38 37 37 36 35 34 35 34 33 33 32 31 30 29 29 28 27 25 24 24 23 23 23 22 21 19 18 18 18 19 19 18 17 16 14 14 14 15 15 16 16 15
51 51 52 53 54 54 55 56 57 57 57 56 55 55 55 54 54 54 54 53 53 52 51 50 49 48 48 47 47 48 50 49 43 39 36 33 34 38 42 43 45 45 44 44 41 40 39 38 38 36 35 36 35 35 34 33 33 33 32 31 30 29 28 27 26 26 25 25 24 24 23 23 22 20 19 20 20 19 18 16 15 14 14 16 17 17 17 17
50 51 52 52 53 54 55 55 56 57 57 57 55 55 55 54 53 53 54 54 53 52 52 51 50 49 49 48 48 49 51 49 46 43 40 36 34 36 40 42 44 45 44 44 43 41 40 39 39 36 36 36 36 36 35 35 35 35 34 33 31 31 30 29 29 28 27 26 26 25 25 25 24 22 21 22 22 20 19 17 16 16 16 18 18 19 19 18
50 50 51 52 52 53 54 55 56 56 56 57 56 55 55 54 52 52 53 54 52 52 52 52 51 50 50 49 49 50 48 45 47 48 45 42 38 37 40 41 43 45 45 44 44 43 41 39 38 36 35 36 36 35 36 36 35 34 35 34 34 34 32 31 30 30 29 28 28 28 28 28 26 25 24 23 22 21 20 19 19 18 19 19 19 20 20 20
49 49 50 51 52 53 54 54 55 56 56 56 56 55 55 54 53 51 52 53 52 51 51 51 51 51 51 51 51 50 46 42 44 47 47 46 43 41 41 42 43 44 45 45 45 45 43 40 38 36 35 35 35 35 36 36 34 34 34 34 34 34 34 33 32 31 30 29 30 29 29 29 27 27 26 25 24 23 22 22 21 21 21 21 21 21 21 21
47 49 49 50 51 51 53 54 54 55 56 56 56 55 54 54 53 52 51 51 52 51 50 50 50 51 50 51 54 52 46 43 41 43 45 45 44 42 42 42 43 44 44 44 45 45 43 42 39 38 36 35 35 34 36 37 34 34 34 34 34 33 34 35 33 32 31 30 30 28 30 31 29 29 28 27 26 25 25 25 24 23 23 23 23 22 22 22
46 47 48 49 50 50 51 53 54 54 55 56 56 56 55 54 52 51 51 50 51 51 50 49 49 50 50 52 54 52 48 46 44 43 44 44 44 43 42 42 43 44 44 44 44 44 44 42 41 40 38 36 35 35 35 35 34 34 34 34 34 34 36 36 34 32 31 32 30 28 31 33 30 31 31 29 28 28 28 27 26 25 25 24 24 23 23 23
45 46 47 48 48 49 50 51 53 54 55 55 55 56 55 55 53 51 51 50 49 50 49 48 48 48 50 52 51 50 50 48 47 46 45 44 43 42 42 42 42 43 44 44 43 43 44 42 41 40 39 38 37 35 34 34 34 34 34 35 35 36 37 35 34 34 33 33 32 30 34 34 31 31 31 30 30 30 30 29 28 28 26 26 25 25 25 25
44 45 46 46 47 48 49 50 51 53 54 55 55 55 55 55 54 52 51 50 50 49 48 47 47 46 47 50 49 49 50 50 51 48 45 45 43 42 43 43 42 42 43 43 42 42 43 42 41 39 39 38 37 35 34 34 35 35 36 36 36 38 37 35 35 36 34 33 32 32 34 34 32 32 31 31 31 31 32 31 31 30 29 28 27 26 26 25
42 44 45 46 46 47 48 49 50 51 52 54 54 55 55 55 54 53 52 51 50 50 48 46 47 47 46 46 46 47 49 50 51 49 46 45 44 42 42 42 41 41 41 41 42 42 42 42 41 40 39 38 38 37 34 34 36 36 38 38 38 39 38 35 36 36 36 33 32 35 35 33 31 32 32 32 32 32 32 33 32 31 30 29 28 28 27 26
40 42 43 44 46 46 47 48 49 50 51 52 53 54 54 55 54 53 52 50 49 50 48 46 47 46 45 44 44 45 49 50 49 48 47 46 45 43 42 42 42 41 40 40 41 41 42 42 41 41 40 39 39 38 36 36 38 38 39 39 39 39 38 37 36 36 36 35 35 36 37 36 33 32 32 32 33 33 32 32 32 31 30 29 29 29 29 28
39 40 41 42 44 45 46 47 48 49 50 50 52 52 53 53 54 52 51 50 47 48 48 46 45 44 45 47 45 43 45 47 47 47 48 46 45 44 42 42 41 41 40 39 40 41 42 41 41 41 41 41 41 42 42 42 43 41 40 40 39 38 38 39 37 35 35 37 38 38 39 39 36 35 34 33 33 33 33 33 32 31 30 30 29 29 29 29
38 39 40 41 42 44 45 46 47 48 49 49 49 50 51 51 52 51 51 50 47 46 46 47 48 45 43 46 47 43 41 44 45 47 48 46 45 44 42 41 41 41 41 40 40 41 41 40 41 43 43 45 45 47 48 46 43 41 40 41 40 38 38 38 37 35 34 35 38 40 42 41 38 37 36 35 34 34 34 34 33 32 32 31 30 30 30 30
38 39 39 40 41 42 44 45 46 48 48 48 48 48 49 49 50 50 51 52 51 49 46 48 51 46 40 40 43 43 41 42 44 47 49 47 45 43 41 41 40 41 42 41 41 41 42 41 43 46 47 48 48 48 48 44 39 38 40 40 40 39 39 38 37 36 34 34 38 40 42 42 40 39 38 38 37 36 36 35 34 34 33 33 32 31 31 31
38 39 39 40 40 41 42 44 45 47 48 48 48 48 49 50 50 49 50 52 54 52 47 49 52 48 42 38 39 42 41 41 44 45 47 47 45 43 42 41 41 41 43 42 41 40 42 43 46 48 48 48 47 46 45 43 41 40 39 39 39 40 40 39 37 37 34 35 39 39 41 43 41 39 39 39 38 38 38 37 36 36 35 34 34 34 33 32
36 38 39 40 41 41 41 42 44 46 47 48 49 50 50 51 50 47 47 48 52 53 48 48 51 49 45 40 39 42 40 39 42 44 45 46 46 44 43 42 41 41 42 42 40 40 41 44 47 47 46 45 45 46 45 45 45 43 40 39 40 40 39 38 38 38 35 36 39 39 41 44 42 40 41 41 40 40 40 40 39 39 38 36 35 35 34 34
35 37 38 39 41 41 41 42 43 44 46 48 50 51 51 50 49 48 45 43 48 52 49 48 51 51 49 44 41 43 41 39 41 44 45 45 45 44 43 42 42 41 41 42 43 43 42 44 46 46 44 45 45 45 46 46 45 45 43 42 42 41 38 38 38 38 36 36 38 38 40 43 41 41 41 42 42 41 40 41 41 40 39 38 37 36 35 35
34 35 37 38 40 41 41 41 42 44 45 47 49 51 50 49 49 50 45 41 44 50 51 51 50 51 51 45 41 42 41 39 40 42 44 45 44 43 43 42 42 42 42 43 45 45 44 43 42 43 43 45 45 44 45 45 45 46 46 45 45 43 41 40 38 36 36 37 38 37 39 42 42 42 41 41 41 41 40 40 41 41 41 39 38 38 37 36
32 34 35 37 38 40 40 40 42 43 44 46 48 49 49 48 48 50 45 41 42 45 48 50 49 49 50 46 41 41 40 39 40 41 43 44 44 42 41 41 42 43 43 43 44 44 45 42 39 42 43 44 45 44 45 45 44 46 46 46 46 42 40 39 37 34 35 37 38 36 37 40 41 42 42 41 40 41 41 40 41 42 42 41 40 39 39 38
30 32 34 35 37 38 39 39 41 42 43 44 46 46 48 47 47 48 45 41 43 44 45 48 48 49 50 48 44 41 40 40 40 40 42 43 44 41 40 40 40 42 43 41 41 41 42 41 40 42 43 43 45 45 45 45 44 45 45 45 45 42 39 38 37 35 36 38 37 36 37 39 39 39 40 39 40 43 42 42 42 42 42 42 42 41 40 40
29 31 32 34 36 37 38 37 38 41 42 42 43 44 46 46 45 46 44 39 42 46 45 45 47 49 50 49 47 42 40 40 38 40 42 42 42 41 40 41 40 42 41 39 40 40 41 42 42 43 42 43 44 44 44 45 44 45 43 43 43 43 42 41 39 37 37 36 36 36 37 39 41 41 39 38 39 41 42 43 43 41 41 43 43 42 42 41
29 30 31 33 35 37 37 36 36 39 40 39 40 42 44 45 43 43 42 38 37 42 45 45 45 46 47 47 48 45 40 38 38 40 42 42 41 40 40 42 41 41 40 39 41 39 39 42 44 44 42 41 42 42 41 43 43 42 39 39 41 43 43 42 40 39 37 35 37 37 36 37 43 43 39 39 41 42 42 43 43 42 41 42 43 43 43 42
28 30 31 32 34 36 37 36 36 38 39 38 39 41 43 43 41 40 41 37 35 38 43 46 44 44 45 45 48 47 41 38 38 38 39 40 41 39 39 41 40 39 39 40 41 38 37 40 41 42 42 41 41 40 39 41 41 38 37 38 38 39 41 40 40 39 37 37 39 40 37 37 42 44 40 40 43 44 43 41 41 41 41 42 43 43 43 43
27 29 31 32 32 34 35 36 37 36 37 38 38 40 42 42 40 39 40 37 35 37 40 45 46 46 46 46 46 47 43 38 37 36 38 39 39 38 37 37 37 36 37 38 39 38 36 36 38 39 41 41 40 38 38 40 39 35 34 35 34 35 37 37 38 38 36 37 40 42 41 38 41 44 43 42 44 43 42 41 40 40 41 42 42 42 43 43
25 27 30 32 32 33 34 35 36 36 36 38 38 39 39 39 40 40 39 36 35 37 39 42 46 47 47 47 46 47 44 40 38 38 38 38 39 38 37 37 36 36 38 38 39 40 37 36 36 37 39 39 38 38 37 38 39 36 35 34 33 34 35 35 36 36 35 36 40 43 43 41 42 46 44 42 43 42 41 42 41 40 40 42 43 42 43 43
25 27 29 31 32 34 34 34 35 36 36 37 38 38 37 37 39 40 39 36 36 38 40 41 44 47 48 47 46 47 45 42 41 40 39 39 39 40 40 40 40 38 38 40 40 40 40 39 37 36 36 37 38 38 37 36 37 38 37 36 35 33 33 35 35 35 37 38 41 42 43 43 46 51 47 44 44 43 42 42 41 41 40 41 42 43 43 43
25 27 29 31 32 34 35 34 35 36 36 37 36 36 37 36 38 41 41 38 36 37 41 42 43 46 48 47 46 47 45 41 41 41 39 39 39 40 40 40 41 39 38 40 40 38 38 39 39 36 36 38 40 40 39 38 39 41 40 39 37 34 33 36 36 36 38 41 43 43 43 42 44 49 50 49 48 44 43 43 42 42 42 41 41 42 42 43
25 26 28 30 32 34 35 35 36 37 37 37 35 34 37 35 35 41 45 41 35 35 40 42 41 42 45 47 46 46 44 41 42 41 39 39 39 39 40 40 41 39 37 38 38 38 38 38 40 41 38 38 41 42 41 39 39 41 41 40 40 38 36 35 35 36 38 39 40 40 39 39 41 46 48 48 48 46 46 45 43 43 43 41 41 40 41 41
24 25 27 29 32 34 36 36 37 39 38 37 34 34 38 37 34 38 44 42 36 35 39 41 40 40 42 43 44 46 45 41 42 41 39 40 40 40 40 40 41 40 37 37 37 38 40 39 40 42 40 38 39 40 38 36 37 38 38 40 42 41 39 37 35 36 37 37 38 38 39 39 41 45 46 44 45 46 47 46 44 45 44 42 41 41 41 40
21 23 25 28 31 33 36 37 38 39 39 36 34 35 37 37 35 35 39 41 38 36 38 41 41 40 39 39 41 45 43 39 40 40 39 40 40 40 40 39 40 41 39 38 36 36 38 39 38 38 39 41 41 38 37 37 36 35 37 41 40 38 39 39 37 35 34 36 38 38 42 42 41 44 45 45 45 45 45 44 43 44 43 41 41 41 41 41
19 22 24 27 30 33 36 37 37 39 38 36 36 36 35 35 36 34 34 39 41 38 36 38 40 40 39 37 40 45 42 38 39 39 37 39 39 40 40 39 39 41 40 38 36 35 36 36 36 36 38 41 40 38 37 38 36 34 38 40 37 35 36 36 35 34 33 35 36 38 43 43 40 42 44 46 46 44 45 44 42 42 42 41 41 41 40 40
17 20 22 25 29 32 35 38 38 38 36 34 37 36 33 33 35 34 33 35 40 41 37 34 36 39 40 37 38 44 44 40 40 40 38 37 37 39 41 39 39 42 41 37 35 34 34 34 34 36 38 36 35 36 37 39 38 36 36 36 35 36 36 35 33 33 34 35 34 36 41 42 41 41 42 45 46 44 44 44 42 41 40 40 41 40 40 40
16 18 20 24 28 31 35 37 37 36 34 34 37 36 32 32 34 35 35 35 38 42 40 34 33 36 39 39 38 41 43 42 41 40 39 37 37 39 41 39 38 41 41 37 35 34 33 33 32 34 35 34 33 36 39 40 39 37 37 36 35 35 36 36 35 33 32 33 33 35 36 37 40 41 42 45 46 43 43 42 40 40 39 38 39 39 40 40
14 15 17 23 28 31 34 35 34 34 34 35 36 34 31 31 33 35 37 37 37 39 40 37 34 35 37 38 37 38 40 41 40 39 39 38 36 37 39 39 37 38 40 38 36 33 31 33 33 31 31 33 35 38 41 43 41 39 40 41 38 36 34 33 34 35 34 32 33 34 34 35 37 38 41 45 45 42 41 41 41 41 41 41 40 40 40 39
13 13 16 22 28 31 34 34 31 31 32 34 33 31 30 31 32 35 36 36 37 37 36 35 35 35 36 36 37 37 36 37 38 37 36 37 37 35 37 39 36 35 36 36 36 34 31 33 33 31 31 33 36 37 38 40 40 41 42 43 42 40 36 32 32 33 33 32 32 32 33 33 34 35 37 40 39 38 39 40 41 41 42 41 39 38 38 37
12 12 15 22 28 32 33 31 29 29 31 33 32 30 30 30 30 34 35 35 36 37 35 33 33 34 35 35 36 36 36 35 36 36 35 37 38 35 34 35 34 34 34 35 36 34 31 30 30 31 32 33 33 33 32 33 35 37 40 42 42 42 41 38 35 34 34 33 31 30 30 30 29 30 31 34 35 35 36 37 37 37 38 37 37 37 37 37
11 11 15 22 28 32 31 29 29 28 29 30 30 29 31 31 30 31 34 34 34 36 35 32 32 34 34 33 33 34 35 35 36 37 34 34 35 33 31 31 32 33 33 33 34 33 31 30 30 30 30 31 31 30 30 30 31 35 38 40 41 42 44 44 43 41 40 38 35 32 31 30 30 30 30 32 33 34 35 36 35 35 36 36 36 37 37 37
11 11 13 21 28 31 29 28 28 29 28 28 28 29 30 32 32 31 33 35 34 34 34 31 31 33 33 32 31 33 33 31 34 36 33 31 31 31 31 31 31 32 33 33 34 34 33 31 31 29 27 28 30 30 30 31 33 36 38 39 41 43 44 44 43 43 43 44 42 38 36 35 34 34 34 34 35 36 36 37 37 37 38 39 39 39 39 38
10 11 12 19 27 29 26 25 26 27 27 27 28 31 32 32 32 31 32 34 34 33 32 30 30 31 32 32 30 31 32 29 29 32 31 29 29 29 31 32 32 31 32 32 32 31 32 32 32 31 29 29 31 32 33 34 34 35 36 38 41 43 43 42 41 41 41 43 45 43 41 41 39 39 40 39 39 38 36 37 39 40 40 42 42 41 41 40
10 11 12 16 22 25 24 23 24 25 27 27 27 30 33 33 32 30 31 34 33 31 30 29 29 29 30 32 30 30 32 29 26 29 30 30 29 28 30 33 32 31 30 30 31 30 30 32 34 35 36 35 35 34 32 30 30 33 36 38 39 40 40 39 39 40 40 40 44 46 44 43 43 44 45 44 42 41 38 37 39 41 41 42 43 43 42 42
10 12 14 16 18 21 22 23 24 24 25 27 26 28 32 34 33 31 32 33 32 30 29 28 30 30 31 33 32 31 33 30 26 27 29 29 27 26 28 31 31 31 29 29 31 29 29 33 36 38 39 38 36 33 29 27 29 32 34 36 37 37 37 38 39 40 39 38 42 44 42 42 44 47 48 47 45 43 42 41 41 42 42 42 42 43 43 43
10 11 14 16 16 19 22 23 25 25 25 27 27 27 30 32 34 34 33 31 29 29 29 29 30 32 32 33 32 32 33 31 29 28 28 28 27 25 26 27 28 29 28 28 30 29 29 33 34 35 37 37 35 33 30 28 29 29 30 32 34 35 37 39 39 40 39 39 40 40 39 40 42 43 46 47 45 45 46 45 44 43 43 43 42 42 42 42
10 11 14 16 16 16 19 20 23 24 25 27 28 29 30 31 33 33 31 30 29 28 30 31 32 32 31 31 31 31 33 32 31 31 28 27 27 26 25 26 26 27 27 28 29 28 28 30 30 30 33 35 34 34 32 32 32 31 31 31 32 33 35 36 37 38 38 39 39 39 40 42 40 39 43 45 43 43 45 45 44 45 45 45 44 43 43 43
10 11 13 15 15 16 16 18 21 23 25 26 28 30 32 32 32 30 28 30 31 29 30 32 33 31 30 30 31 31 33 32 31 30 28 26 27 27 26 27 27 26 27 28 28 28 28 28 26 27 29 31 32 32 32 32 33 33 33 33 33 34 35 36 37 37 38 39 38 38 40 42 39 37 41 44 43 44 46 47 47 48 47 47 46 46 45 44
10 12 13 13 15 16 16 17 20 23 25 27 28 30 32 33 33 29 27 29 31 30 30 30 30 29 28 30 32 32 31 29 28 28 27 26 26 25 25 25 26 27 27 27 27 27 27 26 25 24 27 29 29 29 29 28 29 32 34 35 36 37 38 38 38 38 39 39 38 38 39 39 37 35 37 40 42 44 47 48 49 49 48 48 48 48 48 47
9 13 14 14 14 16 16 17 20 22 24 27 29 30 32 32 32 29 27 27 29 29 29 27 26 26 27 29 31 31 29 28 27 27 26 24 24 23 23 23 25 26 26 26 26 26 26 26 24 24 26 26 25 25 25 24 25 29 33 35 36 38 38 38 38 38 39 39 39 40 41 40 38 36 37 38 39 41 43 45 46 47 47 47 48 49 49 48
Wind_Direction
242 241 241 240 240 239 239 238 238 237 237 237 237 236 235 235 234 234 234 234 235 235 235 235 235 234 235 236 236 236 236 236 236 235 234 234 233 233 232 231 230 230 231 231 231 232 232 231 232 231 230 230 230 231 232 232 231 233 232 231 233 230 232 232 229 232 235 241 244 245 242 235 241 243 241 246 247 237 235 244 242 247 255 252 250 229 202 197
242 241 240 240 239 239 238 238 238 237 237 236 236 236 235 235 234 234 234 234 234 234 234 235 234 234 235 235 236 236 236 237 237 237 235 235 234 233 232 232 231 230 230 231 232 232 232 232 232 231 230 230 230 230 231 232 230 231 232 233 233 229 232 233 233 235 239 245 246 247 245 240 241 236 235 243 245 238 238 247 244 242 244 243 235 211 201 199
243 242 240 239 239 238 238 238 237 237 236 236 236 236 235 235 234 234 234 234 234 234 234 235 234 234 234 234 235 235 235 237 239 238 237 235 234 233 232 231 231 230 230 230 231 231 232 232 231 230 230 231 231 230 231 232 231 231 231 233 233 229 233 237 238 239 241 246 246 248 244 242 243 236 236 239 237 240 239 239 238 237 234 230 228 216 208 205
243 242 241 240 239 238 237 237 237 236 236 236 235 235 235 234 234 234 234 233 233 233 233 234 234 234 234 233 234 234 235 238 239 238 237 235 233 232 231 230 230 230 230 230 230 231 232 231 231 230 230 231 232 230 231 231 231 232 231 232 233 229 233 237 239 242 244 244 244 247 242 241 244 238 237 233 234 247 246 239 237 236 231 226 226 221 215 212
243 242 241 240 239 238 237 237 236 236 236 235 235 235 235 234 234 234 234 233 233 233 233 233 234 233 233 233 233 233 233 236 237 235 236 235 232 231 230 230 229 229 229 229 230 230 231 231 231 230 230 231 232 231 232 232 230 233 233 233 233 230 233 236 238 242 244 244 246 247 242 240 240 239 236 230 234 246 246 243 242 239 232 227 225 222 219 219
243 242 241 240 239 238 237 237 236 235 235 235 235 235 234 234 233 233 233 233 233 233 232 232 232 232 232 232 232 232 231 233 234 232 234 234 230 230 229 228 228 227 228 229 229 229 230 230 230 230 231 231 231 232 233 232 231 234 236 235 235 233 234 237 239 242 244 245 247 244 242 240 238 243 240 233 238 245 244 243 242 240 234 230 226 223 223 224
243 242 241 240 240 239 237 236 236 235 235 234 234 234 234 234 233 233 232 233 233 232 232 232 231 231 231 231 232 231 231 232 233 231 233 233 230 229 228 227 227 226 227 227 228 228 229 229 230 230 231 232 232 232 233 233 233 234 236 236 235 235 235 237 239 243 245 245 245 243 242 239 235 241 243 239 243 246 246 244 241 240 235 231 229 227 227 228
243 242 240 240 239 239 237 236 235 235 234 233 234 234 234 233 233 233 232 232 232 232 232 231 231 230 230 231 231 232 232 231 232 233 233 233 232 230 228 227 226 226 227 227 227 228 229 230 230 230 232 234 233 232 233 234 236 235 235 237 237 237 236 237 240 243 246 245 245 245 242 240 237 239 242 241 245 246 245 245 243 240 236 235 233 232 231 231
242 241 240 239 239 238 237 236 235 234 233 233 233 233 233 233 233 233 232 231 231 232 232 231 231 230 230 231 231 233 233 231 232 234 235 233 234 232 229 227 226 226 227 227 227 227 229 230 230 231 234 236 234 233 232 233 237 236 235 236 237 238 237 239 241 242 244 244 245 245 244 243 240 241 243 241 243 244 243 244 244 240 237 238 237 236 234 234
241 240 240 239 238 237 236 235 235 234 233 232 232 232 232 232 232 232 231 230 230 231 231 231 231 230 230 230 231 233 233 231 232 235 236 235 235 234 230 228 227 226 227 227 227 226 228 230 230 232 236 236 234 235 233 233 237 236 235 237 238 239 239 239 239 241 244 245 244 242 242 243 241 240 241 241 241 242 243 245 245 242 239 238 238 238 237 237
242 240 239 238 238 237 235 235 234 233 233 232 231 230 231 231 231 231 230 230 229 230 230 230 229 230 230 230 231 232 231 230 231 234 236 235 234 233 231 229 227 226 227 227 227 227 228 230 230 231 236 236 234 236 236 235 237 235 235 237 239 241 241 239 239 240 241 243 243 240 242 243 240 239 239 239 240 241 243 245 245 244 243 240 240 240 240 240
242 241 240 238 237 236 235 234 233 232 232 231 230 229 229 229 229 230 230 229 229 229 229 229 229 229 231 232 231 230 230 229 231 233 234 234 232 232 231 230 229 227 227 228 229 228 228 229 229 230 234 235 234 236 237 235 235 235 235 237 240 242 241 238 238 239 237 239 241 242 245 243 238 239 239 238 239 242 243 245 245 245 245 244 242 242 243 243
242 241 240 238 237 236 235 233 232 232 231 230 230 229 228 228 228 229 229 228 228 228 228 228 229 229 230 233 232 230 230 230 231 232 233 233 232 231 231 231 230 229 228 228 229 229 229 229 229 230 233 234 233 235 236 234 233 235 236 237 239 241 240 237 235 236 236 238 238 240 245 243 239 240 239 239 240 242 244 245 246 246 246 245 244 243 244 244
241 240 239 238 237 236 235 233 232 231 230 230 229 228 228 227 227 227 227 227 227 227 227 228 228 229 230 233 232 231 230 230 231 231 231 232 232 230 230 231 231 230 229 229 229 229 229 229 229 230 233 233 235 236 235 235 234 234 237 238 236 238 238 236 233 233 236 239 235 237 244 244 242 241 240 241 241 242 244 245 246 246 246 246 245 245 245 245
240 239 238 238 237 236 235 233 232 231 230 229 228 228 227 226 226 226 226 226 226 226 226 227 227 228 231 233 232 231 230 230 231 230 229 231 232 230 230 230 230 229 229 229 228 228 228 228 228 229 231 232 234 235 234 236 236 234 234 236 236 237 238 237 235 232 234 239 234 234 243 244 242 241 241 241 241 242 244 245 246 247 247 246 246 246 247 247
240 239 238 237 236 236 235 233 232 231 229 228 227 227 226 225 225 225 225 225 226 225 224 227 226 227 232 233 231 229 228 229 229 229 229 229 231 231 230 229 229 228 228 228 228 227 226 227 228 229 229 230 232 233 233 234 235 235 234 235 235 236 238 239 239 235 234 237 235 235 241 243 241 241 241 241 241 242 243 245 246 247 248 247 247 247 247 247
240 239 238 237 235 235 234 233 232 230 229 228 227 226 225 225 224 225 225 224 225 224 224 227 226 227 232 232 229 228 228 228 228 228 228 228 229 230 230 228 228 227 227 227 227 226 225 226 227 228 228 229 230 230 230 229 230 233 235 237 237 237 237 238 240 239 235 236 238 239 241 243 243 243 243 243 243 243 243 245 246 247 248 248 248 248 247 247
240 239 238 237 235 234 234 233 231 230 228 227 226 225 224 224 223 224 223 223 224 222 223 225 222 224 230 230 228 229 228 227 227 226 227 227 227 228 229 228 227 226 226 227 227 226 225 226 226 228 228 228 228 228 228 229 230 232 233 236 238 238 238 238 239 239 235 237 239 240 243 244 244 245 245 245 244 243 243 244 244 245 247 248 248 248 248 248
241 239 238 237 235 233 233 232 231 229 227 226 225 224 223 223 223 223 221 220 220 219 220 220 218 222 230 231 229 229 229 226 225 225 225 225 226 227 227 227 226 224 224 226 226 225 225 226 226 227 227 226 227 228 230 232 234 234 235 237 238 238 240 239 240 240 237 240 241 240 243 244 244 245 245 245 244 244 244 244 244 245 247 248 248 247 248 248
241 240 239 237 235 233 232 231 230 228 226 224 223 221 221 219 219 220 218 218 219 220 221 219 218 223 230 231 227 225 226 225 223 224 224 224 223 224 225 226 225 224 224 225 225 225 225 226 227 227 227 227 228 230 233 235 236 236 236 237 237 238 240 240 241 242 240 242 243 242 244 245 245 245 245 244 244 245 246 246 246 246 247 247 248 248 248 248
242 240 239 237 235 233 231 230 228 226 224 223 221 220 219 217 217 218 217 219 221 221 223 221 219 223 226 229 227 222 223 223 223 223 222 222 221 223 225 224 225 224 225 225 225 226 226 227 228 228 229 229 229 231 233 235 235 236 236 237 238 239 241 241 240 242 241 243 245 244 246 246 245 245 245 244 244 244 244 245 246 247 247 247 247 248 248 249
242 241 239 237 235 233 231 229 227 225 223 221 221 220 219 218 219 219 218 221 222 220 223 222 220 221 224 229 227 222 222 223 223 222 221 221 221 222 224 224 225 225 225 224 225 226 227 229 229 229 230 230 231 231 232 234 234 236 236 237 239 239 241 243 242 242 242 243 246 246 247 247 246 245 245 244 245 244 243 244 245 246 247 247 247 249 250 251
243 241 239 238 235 233 231 229 226 224 221 220 220 220 219 218 219 218 218 222 222 219 220 221 219 220 222 226 227 223 223 223 222 222 220 219 221 222 223 223 225 225 224 224 225 226 228 230 229 229 230 229 231 231 231 233 234 235 235 236 239 238 239 243 243 243 243 244 246 246 248 248 247 246 246 244 245 245 244 244 245 246 246 247 248 249 250 250
245 242 239 237 235 233 231 229 225 223 221 220 220 220 219 218 218 217 218 222 223 220 220 220 220 220 220 224 226 223 224 224 222 221 219 219 220 222 223 223 224 225 224 224 225 228 230 231 229 228 229 229 230 230 230 232 234 235 235 236 239 239 239 243 244 244 245 246 246 247 250 249 245 245 246 245 245 246 244 243 244 246 247 248 249 249 250 251
246 242 239 236 233 231 229 228 225 222 221 220 220 219 217 217 217 216 217 223 224 221 219 219 220 220 218 221 224 223 224 225 222 220 220 220 219 221 224 224 224 225 224 224 226 229 231 230 227 227 228 229 230 231 230 231 234 236 235 236 239 239 240 243 243 243 245 246 245 244 248 249 245 244 245 244 245 245 245 244 243 244 246 248 249 249 250 251
247 242 239 235 232 228 226 226 224 221 220 220 219 217 215 215 216 215 216 223 226 220 217 217 218 218 216 219 222 222 225 226 223 220 219 220 220 221 223 224 225 226 224 225 228 230 230 229 227 227 228 228 230 232 230 230 233 236 235 236 238 239 240 242 242 241 243 245 246 243 245 250 248 245 244 243 243 244 244 244 245 245 245 247 248 249 250 251
247 242 237 234 230 225 223 224 221 219 219 219 217 214 214 213 213 212 214 224 226 219 216 216 217 217 216 217 219 220 224 224 220 220 219 218 219 221 223 223 225 225 224 225 228 229 228 227 227 227 227 227 229 231 230 229 232 237 237 236 237 238 239 241 241 243 244 248 249 244 244 249 249 245 243 242 242 244 244 244 245 245 246 247 248 249 250 251
246 241 236 232 228 224 222 221 219 218 218 217 214 212 211 210 209 209 213 222 223 216 215 216 216 215 214 215 215 219 225 220 218 221 219 217 218 220 223 223 224 225 223 223 226 228 228 226 226 227 227 228 229 230 230 229 233 237 236 235 236 237 239 240 241 244 246 247 247 243 242 247 249 245 243 243 243 244 245 245 246 246 245 247 247 248 250 251
245 239 234 230 227 223 221 220 218 217 217 214 212 211 208 206 207 208 214 221 219 216 216 214 213 213 211 211 214 219 223 221 221 221 217 217 219 221 224 224 224 225 224 224 226 228 230 228 227 227 228 229 229 229 228 229 233 237 235 236 239 239 239 240 241 243 244 245 244 241 240 245 249 246 242 243 243 243 246 247 247 246 246 247 247 248 249 251
245 238 232 227 225 221 218 218 217 216 213 210 209 207 204 204 206 209 215 217 215 216 215 212 212 211 209 210 213 217 219 221 221 218 215 217 218 221 224 223 222 224 225 227 228 228 230 231 228 227 229 230 230 230 229 228 231 234 234 236 240 240 239 240 241 241 243 245 242 240 239 243 249 247 242 242 244 244 247 248 249 248 247 248 248 249 250 251
244 237 230 225 222 218 215 215 214 212 210 207 205 202 202 205 208 211 215 213 213 214 211 209 210 208 207 209 212 214 217 221 220 216 216 217 217 219 221 220 220 222 224 227 228 228 229 230 230 230 230 228 228 230 232 230 229 231 234 235 238 240 240 241 241 240 241 244 241 239 240 241 245 246 243 243 245 245 247 248 249 250 249 249 249 249 250 251
242 235 229 224 221 217 215 213 210 208 207 203 201 200 202 207 211 213 212 210 213 213 208 207 207 207 208 210 212 213 215 219 218 217 218 217 217 219 219 220 218 219 223 224 226 227 228 229 230 232 232 227 226 228 231 231 229 229 231 232 234 237 238 239 239 239 242 244 242 240 240 242 245 247 245 245 246 246 247 249 249 250 250 250 250 250 251 252
241 234 228 223 219 216 214 211 206 205 203 199 199 201 205 210 213 212 209 209 214 214 209 208 208 207 208 209 212 213 214 219 217 216 218 218 218 220 221 222 220 220 223 223 224 227 228 230 228 229 231 228 226 226 228 230 229 228 228 229 231 234 238 239 238 241 243 244 244 241 242 245 246 246 246 246 247 248 249 250 250 251 251 251 251 251 253 253
241 233 227 222 218 215 212 208 205 202 199 197 199 203 207 213 213 210 209 210 214 213 208 207 206 207 208 210 212 211 213 219 217 215 218 218 219 219 220 222 221 222 224 222 224 225 226 230 228 227 229 228 228 229 230 231 231 231 231 231 232 234 238 242 241 242 245 247 246 243 242 245 245 246 247 246 247 248 249 250 251 252 253 253 253 253 254 255
239 231 225 220 216 213 209 206 204 201 198 198 202 206 208 211 211 209 209 209 210 210 206 205 204 204 208 211 211 211 213 218 217 217 219 218 219 219 219 221 221 221 222 222 226 226 227 233 231 229 229 227 228 232 231 231 232 233 232 232 234 235 239 244 245 245 246 248 247 243 243 247 248 250 250 247 247 247 248 249 250 252 253 254 254 254 254 256
235 226 221 217 214 210 206 204 202 200 199 200 205 209 209 210 210 210 210 208 208 206 202 204 205 203 206 209 209 210 213 216 215 217 220 219 221 220 219 222 221 220 222 222 226 226 229 234 233 230 231 228 228 230 229 229 231 233 231 231 235 237 238 243 247 247 246 247 246 243 245 249 251 253 250 247 249 248 248 249 249 251 253 254 254 254 254 255
227 220 217 214 211 207 203 202 200 199 200 203 208 210 210 211 209 209 209 208 207 204 201 203 206 204 204 206 208 208 210 213 213 215 218 218 221 221 220 222 222 222 224 225 228 229 229 234 234 229 231 232 229 228 229 230 230 232 232 233 236 238 238 240 245 246 244 248 248 243 244 246 247 250 249 247 248 248 248 250 250 251 252 253 254 254 255 255
219 214 214 212 207 204 201 200 199 199 201 205 210 211 210 211 209 208 208 206 204 204 203 204 206 205 205 205 207 207 208 212 213 214 216 218 222 221 219 223 224 224 226 225 229 232 229 234 237 230 229 232 230 228 230 232 232 233 235 235 235 236 237 237 240 243 243 247 249 245 245 245 243 246 248 247 247 248 249 250 251 252 252 253 254 255 255 256
213 211 213 208 203 200 198 197 197 200 204 207 209 210 210 210 209 208 208 205 204 205 205 205 206 205 206 206 206 206 208 211 212 214 217 219 223 223 220 223 225 225 225 225 228 231 229 232 237 235 231 229 229 228 229 231 233 234 235 235 234 235 237 237 238 242 243 245 249 247 247 248 245 245 247 248 248 248 249 250 251 251 252 252 253 255 256 257
207 208 211 204 199 197 195 194 196 201 205 208 208 209 209 209 208 209 210 208 205 205 205 206 206 204 205 206 206 206 208 211 212 214 218 219 223 225 222 223 225 224 224 224 227 230 230 231 234 236 232 227 228 230 229 230 231 232 233 233 234 235 238 241 241 241 242 245 248 249 249 250 250 247 247 248 249 248 248 250 252 252 253 253 254 256 257 258
204 207 209 200 196 193 190 193 198 202 206 208 208 208 207 208 206 206 209 210 208 206 206 207 208 206 205 205 207 207 208 210 211 214 219 220 222 227 224 223 224 222 221 223 226 228 229 230 231 232 230 228 231 233 234 233 232 232 234 234 234 235 237 242 243 241 242 244 246 249 251 253 252 250 247 248 249 248 248 250 252 254 254 255 255 255 256 257
202 208 206 196 192 189 189 195 201 203 206 207 207 207 205 205 206 205 206 207 207 206 206 208 210 208 206 206 208 208 208 210 211 213 218 220 221 225 225 221 220 219 219 223 225 226 228 230 230 232 232 233 234 235 235 236 234 235 236 235 235 236 235 238 241 241 243 244 243 246 250 251 250 247 247 248 248 248 248 248 250 252 253 254 255 254 255 257
204 208 201 193 190 188 191 199 201 203 207 207 206 206 205 203 205 206 205 205 205 204 205 209 210 209 208 208 207 207 209 212 214 214 218 220 221 223 221 216 214 216 219 222 224 224 226 229 230 232 236 238 238 238 238 238 235 235 237 236 236 236 236 239 242 244 246 245 244 247 249 247 246 247 249 250 248 247 247 248 249 252 254 255 256 256 256 257
203 204 199 193 190 190 195 201 202 203 206 207 207 206 205 205 205 205 205 204 203 202 204 208 210 209 208 207 207 207 207 210 214 215 217 219 220 219 217 213 212 216 220 222 222 223 225 227 228 229 234 236 236 238 238 237 235 235 237 237 237 238 238 241 243 244 246 246 245 248 249 246 247 250 251 252 251 249 249 250 251 252 255 256 257 257 258 259
201 200 198 192 191 194 200 203 203 203 203 206 208 205 204 206 207 207 205 201 202 204 206 208 208 206 206 205 207 208 208 209 212 213 215 218 219 220 217 214 214 218 222 221 220 221 224 226 226 226 229 230 232 234 236 236 237 237 238 238 238 238 237 239 242 242 244 246 245 246 249 249 251 251 251 252 253 252 251 252 253 254 255 256 257 258 260 261
201 199 195 192 193 198 204 204 203 204 204 205 208 206 204 205 206 206 202 200 202 206 209 210 206 203 205 204 205 208 209 212 213 213 214 216 218 220 218 215 216 219 221 218 216 220 226 228 227 228 230 232 233 236 238 238 236 237 238 237 238 239 238 239 242 242 245 247 247 247 249 251 252 251 251 251 251 253 253 253 254 256 257 258 258 260 261 262
204 201 196 193 195 200 204 205 204 205 205 205 207 205 204 203 204 203 200 201 205 207 210 212 207 204 204 203 205 208 210 212 215 213 213 215 218 219 216 216 219 219 218 217 216 219 225 228 228 230 233 235 236 237 238 237 237 237 238 237 237 238 238 239 241 243 245 248 249 249 249 250 251 250 251 251 252 253 254 253 254 256 257 259 260 261 262 262
205 204 200 197 198 201 204 205 205 206 205 205 207 206 203 201 201 201 200 202 207 210 210 210 208 206 205 204 207 210 209 211 214 214 213 214 215 215 215 218 221 218 216 218 219 220 224 228 229 230 234 237 237 237 237 237 238 238 237 237 238 237 238 239 242 244 245 247 250 252 251 250 252 252 252 252 252 252 253 253 254 255 256 258 260 261 261 261
208 206 203 200 202 205 205 204 204 206 206 205 207 206 202 199 198 201 203 204 208 212 210 208 207 207 207 207 209 209 208 210 213 214 213 212 213 213 213 217 220 218 216 218 222 223 225 228 229 229 233 237 237 237 238 238 240 241 240 240 240 239 240 241 242 244 245 247 251 253 253 253 253 254 255 253 251 251 252 252 252 254 256 258 260 260 261 261
213 210 204 202 207 209 207 204 204 207 207 207 207 205 203 200 199 201 205 206 207 209 208 207 207 207 209 210 210 210 211 212 212 213 211 211 213 215 215 217 217 216 217 219 221 225 225 227 228 228 232 237 237 237 238 238 240 243 243 243 243 243 244 244 244 245 246 248 250 251 253 254 254 255 257 256 254 252 252 252 252 253 254 256 259 260 261 261
220 213 205 205 210 211 209 207 206 208 209 208 206 203 201 201 200 202 207 209 208 207 206 206 208 210 212 212 212 213 213 213 213 213 212 212 215 217 218 219 215 213 216 219 221 223 224 226 229 227 231 237 236 235 237 238 241 244 244 243 243 243 245 246 246 246 246 248 250 250 252 253 254 255 257 257 256 253 252 252 252 253 253 254 256 258 259 259
226 215 208 209 212 212 214 211 207 209 209 206 204 202 202 202 202 204 208 209 209 207 205 205 208 210 212 212 214 214 212 213 213 213 214 215 215 217 218 216 213 212 214 217 220 222 221 223 226 225 228 237 237 232 233 237 241 245 245 243 242 244 246 248 249 249 247 248 250 251 252 254 255 255 255 256 255 253 252 251 251 252 253 252 253 254 255 256